Location: The Saddle
(36.8333°N, 80.3417°W)
Time: 08:28:56
(UTC-04:00)

Vanguard 2 Rocket - Pass Details

Date: 04 February 2023
Orbit: 555 x 3316 km, 32.9° (Epoch: 27 March)

Event Time Altitude Azimuth Distance (km) Brightness Sun altitude
Rises 13:01:27 0° 267° (W) 2,892 9.6 36.7°
Reaches altitude 10° 13:03:53 10° 261° (W) 1,873 8.8 36.6°
Maximum altitude 13:07:43 45° 187° (S) 759 9.1 36.5°
Drops below altitude 10° 13:11:44 10° 114° (ESE) 1,960 8.9 36.3°
Sets 13:14:20 0° 108° (ESE) 3,047 9.7 36.2°
